Regional Weather Roundup
Issued by NWS

Home | Current Version | Previous Version | Graphics & Text | Print | Product List | Glossary On
Versions: 1 2 3 4 5 6 7 8 9 10 11 12 13 14 15 16 17 18 19 20 21 22 23 24 25 26 27 28 29 30 31 32 33 34 35 36 37 38 39 40 41 42 43 44 45 46 47 48 49 50
000
ASUS45 KCYS 191810
RWRWY

WYOMING REGIONAL WEATHER ROUNDUP
NATIONAL WEATHER SERVICE CHEYENNE WY
1200 PM MDT FRI SEP 19 2014

NOTE:  "FAIR" INDICATES FEW OR NO CLOUDS BELOW 12,000 FEET
WITH NO SIGNIFICANT WEATHER AND/OR OBSTRUCTIONS TO VISIBILITY.

WYZ001-191900-
YELLOWSTONE NATIONAL PARK

CITY           SKY/WX    TMP DP  RH WIND       PRES   REMARKS
LK YELLOWSTONE   N/A     56  43  61 CALM      30.22S
6HR MIN TEMP:  36; 6HR MAX TEMP:  58;

W YELLOWSTONE  NOT AVBL

$$
WYZ002>013-054>058-071-098>099-191900-
NORTHERN WYOMING

CITY           SKY/WX    TMP DP  RH WIND       PRES   REMARKS
JACKSON        MOSUNNY   55  52  88 CALM      30.17S
CODY             N/A    N/A N/A N/A MISG        N/A
GREYBULL       SUNNY     74  55  51 S6        29.94S
6HR MIN TEMP:  53; 6HR MAX TEMP:  74;

WORLAND        SUNNY     74  51  44 VRB3      29.95S
6HR MIN TEMP:  54; 6HR MAX TEMP:  74;

SHERIDAN       SUNNY     75  51  43 N6        29.93R
6HR MIN TEMP:  55; 6HR MAX TEMP:  76;

BUFFALO        SUNNY     74  46  36 NE8       29.98R
6HR MIN TEMP:  54; 6HR MAX TEMP:  74;

GILLETTE       SUNNY     75  49  39 N13       29.93R
6HR MIN TEMP:  58; 6HR MAX TEMP:  75;

HULETT         FAIR      75  46  35 MISG      29.92
NEWCASTLE      FAIR      77  45  31 MISG      29.92

$$
WYZ014>020-022>026-101>103-191900-
CENTRAL WYOMING

CITY           SKY/WX    TMP DP  RH WIND       PRES   REMARKS
BIG PINEY      SUNNY     66  44  45 W3        30.19F
6HR MIN TEMP:  43; 6HR MAX TEMP:  67;

PINEDALE       CLEAR     64  37  36 NW13      30.21S
DUBOIS         FAIR      64  32  29 NW21G29   30.13F
LANDER         SUNNY     75  43  31 SE8       30.03F
6HR MIN TEMP:  57; 6HR MAX TEMP:  75;

RIVERTON       SUNNY     77  35  21 NW16G24   30.03F
6HR MIN TEMP:  54; 6HR MAX TEMP:  77;

CASPER         MOSUNNY   80  40  23 W14G21    30.01S
6HR MIN TEMP:  57; 6HR MAX TEMP:  80;

DOUGLAS        PTSUNNY   79  47  32 W21G30    29.98S
6HR MIN TEMP:  54; 6HR MAX TEMP:  80; 6HR PCP: TRACE;


$$
WYZ021-027>030-104>119-191900-
SOUTHERN WYOMING

CITY           SKY/WX    TMP DP  RH WIND       PRES   REMARKS
EVANSTON       SUNNY     68  44  42 N8        30.23R
6HR MIN TEMP:  51; 6HR MAX TEMP:  68; 6HR PCP: TRACE;

KEMMERER       CLEAR     66  45  45 W10G17    30.23S
FORT BRIDGER   FAIR      70  44  40 NW9G16    30.24S
ROCK SPRINGS   MOSUNNY   68  45  43 W9        30.19R
6HR MIN TEMP:  53; 6HR MAX TEMP:  70; 6HR PCP: TRACE;

DIXON          FAIR      74  42  32 NW5       30.18F
RAWLINS        SUNNY     70  45  40 W20G29    30.15S
6HR MIN TEMP:  50; 6HR MAX TEMP:  72; 6HR PCP:  0.02;

SARATOGA       FAIR      72  43  35 N10       30.17S
LARAMIE        SUNNY     75  41  29 W14G21    30.14F
6HR MIN TEMP:  47; 6HR MAX TEMP:  75;

CHEYENNE       MOSUNNY   82  41  23 W9G21     30.05F
6HR MIN TEMP:  55; 6HR MAX TEMP:  83;

TORRINGTON     MOSUNNY   81  49  32 SW9       29.92S
6HR MIN TEMP:  54; 6HR MAX TEMP:  81;

PINE BLUFFS    FAIR      82  41  23 N7        29.99F

$$


USA.gov is the U.S. government's official web portal to all federal, state and local government web resources and services.